DB0SVX Weather Reports


Display with metric or nautical units.
time (UTC)temp
F
wind
direction
speed
MPH
gust
MPH
rain 1hr
in
rain 24hr
in
rain mn
in
humidity
%
barometer
mb
20260504205521 57 135 0.0 0.0 0.00 0.00 0.00 48 1011.0
20260504204021 58 135 0.0 0.0 0.00 0.00 0.00 47 1011.0
20260504202521 58 135 0.0 0.0 0.00 0.00 0.00 47 1010.7
20260504201021 59 315 0.0 0.0 0.00 0.00 0.00 45 1010.7
20260504195521 60 315 0.0 0.0 0.00 0.00 0.00 43 1010.7
20260504194021 62 315 0.0 0.0 0.00 0.00 0.00 41 1010.7
20260504192521 63 315 0.0 0.0 0.00 0.00 0.00 40 1010.7
20260504191021 64 225 0.0 0.0 0.00 0.00 0.00 39 1010.9
20260504185523 64 292 2.0 0.0 0.00 0.00 0.00 38 1010.7
20260504184021 65 180 3.0 0.0 0.00 0.00 0.00 36 1010.5
20260504182521 66 22 0.0 0.0 0.00 0.00 0.00 34 1010.5
20260504181021 67 337 3.0 0.0 0.00 0.00 0.00 33 1010.5
20260504175521 69 270 0.0 0.0 0.00 0.00 0.00 32 1010.5
20260504174021 72 337 0.0 0.0 0.00 0.00 0.00 30 1010.5
20260504172521 76 0 0.0 0.0 0.00 0.00 0.00 29 1010.5
20260504171021 80 22 0.0 0.0 0.00 0.00 0.00 29 1010.2
20260504151021 82 247 0.0 0.0 0.00 0.00 0.00 27 1010.2
20260504141021 86 247 6.0 0.0 0.00 0.00 0.00 25 1010.5
20260504081021 75 112 3.0 0.0 0.00 0.00 0.00 34 1013.2
20260504045521 50 225 0.0 0.0 0.00 0.00 0.00 48 1013.4
20260504044021 48 202 0.0 0.0 0.00 0.00 0.00 49 1013.2
20260504042520 48 202 0.0 0.0 0.00 0.00 0.00 49 1013.4
20260504041020 47 202 0.0 0.0 0.00 0.00 0.00 50 1013.5
20260504035520 48 202 0.0 0.0 0.00 0.00 0.00 51 1013.7
20260504034020 49 202 0.0 0.0 0.00 0.00 0.00 51 1013.7
20260504032520 50 202 0.0 0.0 0.00 0.00 0.00 51 1013.7
20260504031020 51 202 0.0 0.0 0.00 0.00 0.00 51 1013.7
20260504025520 52 202 0.0 0.0 0.00 0.00 0.00 50 1013.7
20260504024020 52 202 0.0 0.0 0.00 0.00 0.00 50 1013.7
20260504022520 53 270 0.0 0.0 0.00 0.00 0.00 50 1013.7
20260504021020 52 270 0.0 0.0 0.00 0.00 0.00 50 1013.7
20260504015520 52 270 0.0 0.0 0.00 0.00 0.00 50 1013.9
20260504014020 52 270 0.0 0.0 0.00 0.00 0.00 50 1013.9
20260504012520 52 270 0.0 0.0 0.00 0.00 0.00 50 1013.9
20260504011021 52 270 0.0 0.0 0.00 0.00 0.00 50 1013.9
20260504005520 51 270 0.0 0.0 0.00 0.00 0.00 51 1013.9
20260504004020 51 270 0.0 0.0 0.00 0.00 0.00 51 1013.9
20260504002520 51 270 0.0 0.0 0.00 0.00 0.00 51 1014.0
20260504001020 52 270 0.0 0.0 0.00 0.00 0.00 51 1014.0
20260503235520 52 270 0.0 0.0 0.00 0.00 0.00 51 1014.2
20260503234020 53 180 0.0 0.0 0.00 0.00 0.00 50 1014.2
20260503232520 54 180 0.0 0.0 0.00 0.00 0.00 50 1014.4
20260503231020 54 292 0.0 0.0 0.00 0.00 0.00 50 1014.2
20260503225520 54 315 0.0 0.0 0.00 0.00 0.00 50 1014.2
20260503224020 54 270 0.0 0.0 0.00 0.00 0.00 50 1014.4
20260503222520 53 292 0.0 0.0 0.00 0.00 0.00 51 1014.0
20260503221020 53 337 0.0 0.0 0.00 0.00 0.00 50 1014.0
20260503215520 54 0 0.0 0.0 0.00 0.00 0.00 50 1013.9
20260503214020 54 337 0.0 0.0 0.00 0.00 0.00 49 1013.7
20260503212520 55 0 0.0 0.0 0.00 0.00 0.00 49 1013.7
20260503211020 56 270 0.0 0.0 0.00 0.00 0.00 48 1013.7